Tracking 22879 objects as of 21-Apr-2021
HD Live streaming from Space Station
objects crossing your sky now

DELTA 1 DEB

Track DELTA 1 DEB now!
10-day predictions


NORAD ID: 19590
Int'l Code: 1973-086HG
Perigee: 1,512.3 km
Apogee: 1,584.9 km
Inclination: 102.4 °
Period: 116.9 minutes
Semi major axis: 7919 km
RCS: 0.0128 m2 (small)
Launch date: November 6, 1973
Source: United States (US)
Launch site: AIR FORCE WESTERN TEST RANGE (AFWTR)

Note: This is SATELLITE DEBRIS
aabbcc
Your satellite tracking list
Your tracking list is empty




NASA's NSSDC Master Catalog

Two Line Element Set (TLE):
1 19590U 73086HG  21111.23068972 -.00000023  00000-0  18859-3 0  9991
2 19590 102.3999  93.6572 0045831 189.4927 183.7947 12.31817321414302
Source of the keplerian elements: AFSPC